Theta_e
317 318 317 317 317 317 317 317 317 317 316 316 316 316 317 317 318 318 319 319 319 319 319 320 320 320 321 321 320 320 318 320 318 318 310 311 316 325 324 325 327 328 328 313 315 314 314 313 311 311 311 309 308 306 308 307 307 305 299 296 295 298 297 300 299 300 302 301 303 304 304 303 301 304 306 308 306 306 306 305 308 309 309 310 316 319 324 327
317 317 318 318 318 318 318 317 317 317 316 316 316 317 317 318 318 319 319 319 320 319 320 320 320 320 321 321 320 319 319 320 314 311 309 321 325 328 324 325 327 326 328 314 313 313 311 310 309 311 310 307 309 305 307 304 307 300 299 299 296 299 299 303 302 303 301 301 303 303 304 303 302 304 305 302 302 303 303 305 306 306 308 313 314 322 328 330
316 317 317 317 317 317 317 317 317 317 316 316 317 317 317 318 318 319 319 319 319 320 320 320 320 320 320 320 320 318 319 317 314 307 311 324 328 326 329 328 325 326 316 313 316 313 309 309 310 309 308 306 307 304 307 304 304 303 300 297 299 302 303 304 304 303 304 304 302 303 304 303 304 304 306 301 301 303 301 302 304 305 305 308 311 322 327 332
316 316 317 317 317 317 317 317 316 316 316 317 316 317 317 318 318 318 319 319 319 320 320 320 320 320 321 320 319 320 319 315 309 309 315 328 330 328 328 328 329 326 319 317 318 314 313 312 311 310 307 305 306 307 303 303 301 304 300 298 300 303 301 304 306 305 305 305 302 302 303 302 304 305 304 302 300 300 302 305 305 304 306 307 309 320 318 330
316 316 316 316 317 317 317 316 316 316 316 316 317 317 317 318 318 318 318 319 319 320 320 320 320 320 320 320 319 319 316 307 304 312 317 328 334 329 329 329 329 321 318 317 318 317 316 311 310 309 307 303 306 305 304 306 306 303 300 302 303 303 301 304 305 306 304 304 302 301 300 301 306 305 304 303 299 299 303 306 307 307 307 309 310 309 320 329
315 316 316 316 316 316 316 316 316 316 316 316 316 316 317 317 317 317 318 318 319 320 320 320 320 320 320 318 318 319 310 294 309 311 331 330 332 332 330 330 330 325 318 316 315 314 312 311 309 305 304 304 303 301 304 306 307 297 302 303 304 304 301 304 305 305 305 303 303 302 304 305 303 302 304 304 302 304 308 308 308 308 309 310 319 316 326 329
315 315 316 316 316 316 316 316 316 316 316 316 316 316 316 317 317 317 318 318 319 319 320 320 320 320 319 317 321 318 311 309 313 315 330 332 332 332 332 330 332 322 317 315 313 311 310 309 308 305 304 304 305 304 305 305 305 302 299 303 304 305 303 305 304 305 304 304 303 305 306 302 302 299 304 303 305 306 308 309 309 309 309 310 315 323 329 331
315 315 315 316 316 316 315 316 316 316 316 316 316 316 316 316 317 317 317 318 318 319 319 320 320 320 318 316 311 311 314 308 314 319 330 336 326 326 329 320 317 317 315 311 310 310 309 308 305 307 304 303 303 303 306 304 304 302 302 305 305 305 305 306 306 305 305 305 306 305 303 303 304 302 305 303 305 307 308 309 308 309 309 309 309 317 326 327
314 314 315 315 315 315 315 315 316 316 316 316 316 316 316 316 316 316 317 317 318 318 319 319 319 319 318 317 313 308 307 315 318 317 325 326 319 319 321 318 321 318 314 315 312 311 310 307 307 308 302 304 306 303 306 303 300 304 304 305 305 305 307 307 306 306 306 307 307 304 302 304 304 306 302 304 305 308 309 308 308 309 308 308 310 312 316 326
314 314 314 315 315 315 315 315 315 316 315 316 315 315 316 315 316 316 316 317 318 318 319 319 319 318 317 317 314 306 310 317 317 319 321 318 320 318 317 317 315 314 313 312 312 311 309 308 309 309 309 307 307 304 306 303 302 306 305 305 305 305 306 306 305 306 307 305 307 303 303 304 306 302 298 305 307 308 307 307 308 308 307 307 310 313 315 317
313 313 314 314 314 314 314 314 315 315 315 315 315 315 315 315 315 315 316 316 317 318 319 319 319 319 314 314 309 305 314 316 319 319 319 317 316 315 315 316 316 313 313 313 312 313 312 311 312 311 309 305 306 305 306 306 308 306 306 305 305 306 306 306 306 306 307 305 307 306 303 305 305 303 300 306 308 308 306 308 308 307 308 308 310 311 314 316
312 313 313 314 314 314 314 314 315 315 315 315 314 314 314 314 314 315 316 316 317 317 318 319 317 317 317 316 312 308 316 316 318 318 319 317 314 315 316 315 315 314 313 310 312 314 314 312 312 309 302 309 302 306 304 309 307 306 306 301 304 305 303 306 305 307 306 303 307 307 302 301 302 300 305 306 308 308 307 307 307 307 307 308 310 311 313 315
312 312 313 313 313 313 313 314 314 314 314 314 313 313 313 314 314 315 316 317 318 319 319 319 318 320 316 313 309 315 316 319 316 316 315 317 317 318 317 317 316 316 314 311 312 314 314 313 312 307 309 307 304 300 306 308 306 307 306 303 301 301 301 305 307 307 306 306 307 305 293 298 301 304 306 308 307 306 306 307 307 307 307 308 309 310 311 314
312 312 312 313 313 313 313 314 314 314 313 313 313 313 313 313 314 315 317 316 318 318 318 317 318 317 314 310 312 315 316 318 318 317 316 317 313 314 316 317 316 316 316 313 313 314 314 314 312 310 311 307 304 311 306 306 307 301 304 305 299 297 300 305 305 307 303 307 306 306 294 297 301 304 307 308 308 307 305 306 307 307 307 307 308 309 311 313
312 312 312 312 312 312 313 313 313 313 313 313 313 313 312 313 314 316 317 317 319 319 318 318 318 314 312 315 316 317 338 319 315 315 316 313 313 312 314 316 314 315 315 315 313 314 315 313 311 307 304 311 310 305 302 302 305 304 300 295 300 297 298 303 306 306 301 306 307 303 296 296 301 304 306 308 308 306 305 306 306 307 307 308 308 309 311 313
312 312 312 312 312 312 313 313 313 312 312 312 312 312 312 313 315 317 317 318 318 314 320 317 317 315 311 308 310 328 315 310 312 315 316 313 314 311 313 313 314 312 314 313 315 315 314 312 307 307 306 308 303 301 300 302 301 304 300 296 295 297 297 301 303 306 306 304 305 302 295 299 300 305 306 308 307 307 306 306 306 307 307 308 308 309 310 312
312 312 311 311 311 311 312 312 312 312 312 312 311 312 313 314 316 316 317 317 320 321 318 314 317 318 307 313 317 310 310 313 315 315 316 317 313 312 311 311 310 311 313 313 313 313 313 309 310 308 307 303 305 305 297 297 298 297 300 296 300 296 298 296 304 305 306 304 301 304 299 300 302 304 306 307 306 306 305 305 306 307 307 308 308 309 310 312
311 311 312 311 311 312 312 312 312 312 311 311 310 311 313 315 315 314 318 315 319 319 320 320 318 312 307 314 306 307 312 312 313 314 314 317 315 314 313 310 311 309 310 309 312 308 311 306 308 302 303 304 304 301 296 292 294 294 296 296 296 298 299 298 296 302 304 304 301 302 300 301 303 304 305 306 307 306 305 305 306 307 307 308 308 309 310 311
311 311 311 311 311 312 311 312 312 312 310 310 311 311 310 311 315 319 315 319 313 312 307 307 309 302 298 306 311 312 312 313 315 314 312 314 314 315 315 313 309 309 305 304 306 307 308 306 306 301 297 299 300 300 298 298 299 297 297 296 296 295 296 296 301 305 303 300 299 300 298 300 301 302 303 305 306 305 305 306 306 306 307 308 308 309 310 310
311 311 311 311 311 311 311 311 311 311 310 310 315 321 322 318 313 309 314 316 314 312 308 308 310 309 310 310 310 313 315 316 310 312 313 315 312 312 311 311 310 309 306 302 304 305 308 299 298 297 300 302 303 302 301 301 301 300 299 298 297 297 298 300 300 303 305 300 298 300 300 301 301 302 303 304 306 305 305 305 305 306 306 306 307 308 310 311
311 311 311 311 311 311 310 310 310 310 310 311 313 316 308 307 304 304 308 311 316 311 309 310 309 308 307 310 312 311 307 310 312 311 313 316 312 310 307 308 306 302 304 305 302 306 305 298 299 301 303 303 303 303 302 301 301 299 298 297 296 297 295 299 299 303 304 298 299 300 300 300 301 302 303 304 304 303 304 305 305 305 306 306 307 307 309 311
311 311 311 311 311 310 310 310 309 309 309 314 316 315 312 312 314 315 311 306 310 311 310 311 312 310 313 312 313 313 311 307 308 311 314 314 310 305 306 304 301 298 303 304 304 303 300 298 302 305 305 304 303 303 302 301 300 300 297 298 296 298 299 302 302 303 304 300 297 301 298 299 301 302 304 303 303 304 305 305 305 306 306 306 306 307 308 309
311 311 311 311 311 310 309 309 309 307 313 319 320 314 313 317 321 321 316 310 307 312 310 310 309 310 310 313 313 314 306 305 304 309 311 313 307 307 304 301 302 302 303 302 298 299 296 300 303 306 305 303 302 302 302 301 300 298 299 295 295 298 295 292 299 302 302 300 298 300 298 299 302 303 303 304 303 304 306 306 306 306 306 306 306 307 307 308
311 311 311 311 310 310 309 308 307 315 319 320 317 314 319 322 321 319 314 306 306 310 310 312 310 309 309 307 312 310 306 307 307 306 314 310 305 308 305 304 302 300 299 302 301 299 297 302 306 305 304 302 300 300 300 299 297 300 298 297 297 298 298 297 296 301 303 303 302 300 298 298 299 299 300 303 305 304 304 305 305 306 307 307 308 307 308 307
310 310 310 310 310 309 308 306 315 324 318 316 318 320 322 323 322 319 312 307 307 307 314 311 311 311 312 318 315 307 309 310 309 310 313 312 308 305 303 306 303 299 301 303 302 299 300 305 306 303 303 301 299 298 299 298 295 298 299 299 299 300 297 298 299 298 296 295 299 300 290 291 297 299 299 301 302 302 303 303 303 304 306 306 305 306 307 307
311 310 310 310 309 308 307 317 319 317 314 314 316 321 323 323 322 321 311 301 298 305 308 301 314 306 315 309 312 310 309 304 310 312 313 313 314 307 306 303 305 299 302 303 301 298 299 306 304 302 300 299 299 299 300 301 295 295 297 301 301 300 298 298 297 295 291 288 297 300 289 285 296 297 299 300 301 301 303 302 303 304 304 305 305 305 306 306
311 310 310 309 308 307 314 318 317 317 314 314 320 323 324 322 326 320 309 299 294 305 303 308 308 309 312 310 310 310 295 301 311 313 312 315 310 313 301 300 305 305 306 305 298 296 303 303 301 301 300 298 298 297 301 300 297 294 301 301 300 299 298 297 297 295 294 297 299 299 296 289 289 296 299 301 300 300 300 301 303 303 303 304 305 306 306 307
310 310 309 309 308 307 309 311 314 315 313 317 322 322 324 325 322 322 307 290 288 308 303 307 308 315 310 311 312 305 304 308 302 308 312 313 312 308 304 302 302 302 305 302 290 302 301 299 299 298 298 296 296 299 301 301 296 296 301 302 299 299 298 298 297 295 297 293 290 295 298 289 288 295 301 301 296 298 298 300 301 302 303 304 305 305 306 307
310 309 309 308 308 307 311 312 315 313 318 320 321 322 324 327 320 309 299 288 305 304 315 305 317 312 309 311 308 307 307 309 301 307 311 313 312 308 301 303 302 302 304 301 296 299 302 302 301 300 298 296 299 300 301 301 295 300 302 302 300 300 299 298 295 295 296 291 286 292 295 287 288 295 297 300 296 296 297 299 301 302 303 304 304 305 306 306
309 308 308 308 309 318 316 317 315 319 320 321 321 322 326 323 315 301 292 285 306 296 306 308 308 304 308 304 304 306 304 305 306 308 308 307 308 310 308 308 303 302 300 304 301 301 303 307 307 302 298 300 301 301 302 301 301 303 301 299 299 298 298 298 297 296 291 285 288 293 296 292 284 291 295 295 296 299 299 301 302 302 303 304 304 304 304 304
308 308 307 308 309 317 316 314 322 323 321 323 323 323 322 317 304 294 287 298 306 304 307 306 303 307 303 302 299 304 304 303 304 304 303 307 306 308 305 303 307 301 300 300 300 302 302 304 303 303 305 304 303 299 302 302 302 300 298 296 296 294 297 295 294 296 285 283 291 295 293 294 284 288 296 299 302 301 300 299 301 301 301 302 304 303 304 304
307 307 307 307 311 314 312 317 321 325 324 324 322 320 315 299 305 289 290 308 294 302 302 301 306 303 302 303 303 302 300 302 303 303 300 301 301 301 300 296 299 292 293 295 294 300 298 300 302 303 307 302 299 297 298 300 300 299 297 297 289 286 288 284 288 283 284 282 291 296 296 290 289 294 300 301 300 300 302 301 301 301 301 302 302 303 303 304
306 306 306 309 312 314 316 319 324 327 326 324 321 318 306 296 287 299 300 302 296 304 301 304 302 302 303 299 301 302 304 298 303 302 301 303 300 302 303 301 299 297 289 296 294 294 295 300 300 302 303 304 301 293 293 293 296 296 294 292 287 283 282 280 283 285 285 290 294 294 296 289 292 295 299 298 300 300 301 302 302 301 302 302 302 302 303 304
305 306 310 319 322 320 322 328 327 326 323 323 317 310 304 292 291 305 300 301 301 306 306 303 303 302 302 299 301 303 297 303 301 300 303 300 300 297 300 303 302 299 299 295 292 292 285 289 296 299 295 303 300 298 296 295 296 295 298 296 291 286 283 279 282 279 282 284 288 294 289 285 287 290 300 299 300 302 302 302 302 303 303 303 302 303 303 303
305 309 319 325 326 328 327 325 326 327 323 318 312 305 292 292 299 297 299 301 304 304 303 306 301 301 301 302 304 303 301 298 303 300 300 298 296 298 297 298 301 299 299 291 295 293 292 292 298 302 300 302 298 301 302 299 297 300 298 298 293 286 294 285 288 286 285 285 285 289 287 292 291 299 300 302 302 301 302 301 301 300 301 301 302 301 301 302
309 320 330 329 331 334 331 327 327 326 321 313 306 297 294 299 298 302 300 304 305 301 301 302 302 299 298 299 303 302 305 299 301 300 299 299 299 296 299 300 299 300 297 291 295 288 292 290 298 300 302 300 301 302 302 302 288 294 296 290 293 299 295 289 289 292 291 288 284 290 290 293 298 298 299 300 300 299 300 300 300 300 300 301 300 300 301 302
311 318 320 326 326 328 329 328 324 323 318 312 303 295 302 302 305 303 305 303 303 304 302 296 298 296 295 296 299 301 301 301 300 298 295 300 296 299 299 301 303 302 302 297 293 300 290 290 299 298 297 302 303 304 304 303 302 298 290 293 299 301 298 292 283 286 285 282 283 289 286 287 289 284 297 297 297 298 298 298 300 301 300 299 299 300 300 301
312 315 319 320 324 327 327 328 325 320 315 309 299 301 306 301 305 304 306 305 304 305 301 299 299 302 297 295 297 299 301 296 298 299 296 299 294 302 299 299 303 303 302 303 294 297 298 288 296 298 297 300 304 302 301 303 303 297 295 303 293 285 284 290 287 280 281 281 283 286 288 288 290 288 294 293 294 295 296 297 297 297 298 299 299 300 301 302
314 316 316 322 327 326 328 328 324 317 311 304 302 297 304 304 306 304 306 305 305 303 301 302 296 301 299 297 299 301 300 294 297 297 293 297 292 300 298 300 300 304 304 302 297 298 299 288 290 299 298 299 302 298 289 294 300 302 302 297 300 295 287 286 287 287 286 281 282 283 287 284 293 293 294 294 294 296 296 297 297 297 298 299 299 299 300 301
319 314 312 326 327 330 329 325 319 315 309 299 302 302 307 303 304 306 307 304 303 302 301 299 303 298 300 300 300 297 301 299 298 297 297 298 296 301 300 303 300 301 302 302 299 301 293 299 285 294 299 299 292 295 292 294 291 293 293 292 294 294 297 293 293 288 285 283 282 281 281 286 293 298 296 295 296 297 297 296 297 297 298 299 299 300 301 301
314 309 311 326 326 329 326 321 312 308 306 308 307 304 305 302 305 305 306 306 304 307 303 301 301 299 300 299 299 302 299 299 299 296 297 297 296 292 303 303 303 300 302 301 299 300 291 293 287 292 293 292 294 299 299 298 297 295 293 290 292 288 286 283 283 293 290 286 282 282 281 288 295 299 298 296 297 298 298 297 297 298 298 299 299 301 301 301
313 305 313 324 329 325 318 308 309 312 306 302 302 305 304 308 305 304 305 306 305 304 307 304 305 302 301 300 300 300 299 297 299 298 298 295 300 300 301 306 303 303 299 295 297 301 300 296 292 288 291 293 297 299 303 302 301 297 297 292 295 293 289 286 280 283 288 289 290 287 284 286 297 298 299 297 298 298 298 298 297 298 299 299 300 301 301 303
313 306 323 330 328 326 316 306 308 301 304 306 309 306 307 305 304 305 302 304 303 304 304 303 303 301 303 301 301 300 300 295 297 296 298 299 299 301 304 305 302 301 301 299 300 301 301 293 289 292 296 297 299 300 301 303 301 296 297 297 294 289 290 287 286 287 285 287 285 285 282 287 297 299 299 299 299 299 299 299 298 298 298 299 300 300 300 301
308 308 315 328 331 323 312 298 298 301 306 310 309 306 309 306 305 303 303 305 304 303 302 302 304 304 301 304 303 298 302 289 299 298 297 299 298 303 303 303 304 301 299 299 295 303 291 295 292 287 287 290 293 296 296 300 300 293 291 295 296 295 293 293 292 291 285 287 286 283 279 286 295 299 298 298 298 298 298 298 299 298 299 299 299 300 300 301
308 315 314 321 325 320 304 308 305 302 304 305 306 304 306 306 308 307 305 304 307 305 304 302 304 305 302 305 302 302 303 300 295 301 300 299 300 303 303 302 302 301 304 302 301 302 295 294 292 285 281 280 281 282 284 287 290 293 296 294 295 290 286 287 284 286 283 286 287 284 283 290 294 296 296 297 297 297 297 298 299 299 299 298 300 300 300 300
307 297 308 312 316 315 312 312 308 303 301 303 298 304 304 303 306 307 306 306 307 307 306 305 305 306 303 303 300 300 300 303 300 298 298 298 299 301 302 302 301 301 305 305 302 301 295 298 296 291 288 286 287 291 296 297 292 287 289 294 293 296 294 289 288 286 283 284 284 286 286 287 289 292 294 295 296 295 296 297 297 297 299 299 300 300 300 300
310 304 303 300 310 311 308 312 309 308 302 307 296 305 304 304 306 308 308 302 308 306 306 305 303 301 301 301 299 299 300 300 301 299 299 299 301 302 303 302 303 305 306 301 302 301 297 293 295 295 295 294 295 294 296 296 290 289 287 287 293 290 289 286 285 284 285 285 281 289 290 286 288 292 294 295 296 296 296 297 297 298 298 298 299 299 300 299
304 308 310 313 303 297 298 303 307 307 308 307 303 307 304 303 304 300 308 309 309 311 303 303 304 303 302 300 300 292 297 298 297 293 300 300 299 301 300 301 301 306 304 302 304 301 297 290 295 296 295 296 297 297 297 296 295 294 289 287 287 288 287 285 285 287 287 284 282 288 290 287 290 293 295 296 296 295 296 297 298 298 299 299 298 298 298 298
312 312 311 316 304 305 305 307 306 305 303 303 302 303 301 302 302 305 305 305 306 305 307 294 300 301 302 303 301 295 297 290 291 298 297 297 299 300 298 300 303 304 303 301 302 304 298 293 297 296 294 296 296 297 297 295 295 296 293 290 290 287 286 286 286 290 288 286 289 290 291 290 293 294 296 296 298 298 298 299 299 298 297 298 298 297 297 298
308 305 306 311 309 305 307 307 307 306 301 304 297 302 302 302 302 305 307 306 298 302 306 302 302 303 303 302 301 297 299 300 299 292 300 300 299 300 298 299 299 303 303 300 301 303 297 290 297 296 293 293 296 297 297 296 295 292 293 293 291 287 287 287 286 286 288 286 287 288 288 288 295 298 297 298 300 300 299 297 297 297 298 298 297 297 297 297
313 314 311 301 299 303 305 307 307 304 301 303 300 303 304 305 305 307 306 310 306 303 305 302 304 303 304 303 302 302 304 303 302 301 302 302 295 302 298 300 301 298 300 300 300 301 300 293 298 295 289 290 296 294 295 295 295 289 286 287 286 285 285 286 286 287 286 286 287 287 286 287 294 298 297 298 298 297 296 297 297 297 298 298 297 297 297 297
316 316 316 310 300 302 301 305 304 302 296 301 305 304 304 304 307 308 299 308 310 310 308 306 306 303 303 302 301 304 306 307 305 306 305 304 305 303 303 303 302 300 299 298 302 297 298 296 291 291 288 288 294 295 294 294 290 285 286 288 288 288 289 290 292 292 289 288 286 285 287 294 296 297 295 296 296 296 296 297 296 297 298 298 297 297 297 298
Wind_Speed
17 17 17 16 15 15 15 14 14 14 13 13 14 13 13 14 14 15 15 15 15 15 15 16 16 16 17 16 16 16 16 11 12 10 4 4 4 1 4 6 9 9 6 8 11 11 11 7 5 3 6 6 4 5 7 5 6 4 7 7 8 9 5 10 12 7 6 6 5 11 9 6 8 4 7 7 6 7 12 12 12 7 10 5 13 13 11 10
18 17 17 17 16 16 15 15 14 14 14 13 13 14 14 14 15 15 15 15 15 16 15 15 16 16 18 15 15 12 13 11 13 1 7 4 3 1 7 7 10 10 5 10 13 13 17 7 3 3 6 7 4 3 1 3 3 6 7 7 8 7 6 9 9 8 7 9 11 8 8 8 4 9 7 10 8 10 12 14 10 11 12 13 13 8 9 5
19 18 18 18 17 17 16 16 15 14 14 13 13 13 14 14 14 15 16 16 16 16 16 15 15 15 17 17 12 14 10 11 12 6 5 2 4 4 6 9 11 10 5 12 15 11 9 8 5 5 9 9 4 3 2 4 4 6 7 8 3 11 8 4 7 7 5 8 10 10 9 9 5 10 8 7 9 11 12 7 8 10 11 11 9 6 6 7
19 19 18 18 18 18 17 17 16 15 15 14 14 14 14 15 15 15 16 16 16 16 15 15 15 16 15 18 14 14 10 13 8 9 7 8 4 6 8 10 11 13 12 14 14 8 4 5 8 7 8 8 5 5 8 7 6 3 6 5 7 10 9 11 8 11 8 8 9 10 7 9 7 7 3 3 7 9 4 12 11 13 12 9 9 5 8 7
19 19 19 19 18 18 18 18 17 16 15 15 14 15 15 15 15 16 16 16 16 16 16 15 15 15 16 16 15 10 9 9 8 7 8 8 7 6 8 11 12 12 13 15 11 14 9 7 5 7 4 8 6 4 5 2 1 6 10 7 7 8 9 9 9 6 6 5 5 6 9 7 9 7 10 12 10 6 10 7 10 7 10 8 8 9 10 9
19 19 19 19 19 19 19 18 18 17 16 16 15 15 15 15 16 15 16 16 17 17 16 14 14 14 15 18 14 9 6 3 5 8 8 7 7 7 9 11 15 12 13 13 14 7 9 10 8 7 8 7 5 6 9 7 4 7 7 0 4 4 8 5 1 4 2 4 8 7 8 9 8 7 10 3 7 10 6 6 8 9 9 7 4 9 10 9
19 19 19 20 19 19 19 19 18 18 17 16 16 15 15 15 16 16 16 17 16 17 17 15 13 15 16 19 10 7 9 3 8 8 8 7 8 5 11 12 12 14 15 17 7 8 2 9 7 7 5 5 5 7 6 9 5 8 3 2 2 4 8 9 6 8 6 10 7 7 9 9 8 11 7 5 6 12 8 7 7 9 4 7 13 8 12 10
20 19 19 20 20 19 20 20 19 19 18 17 16 15 15 14 16 17 17 16 17 17 16 15 13 13 14 12 9 8 11 3 10 11 8 8 8 9 9 11 13 14 11 3 5 6 3 10 7 4 7 8 7 9 5 5 4 6 8 10 5 5 10 9 5 6 6 6 7 8 8 8 8 11 1 3 6 7 9 9 7 9 7 8 7 12 10 9
21 21 20 20 20 20 20 20 20 20 19 19 18 16 16 16 16 16 17 17 17 17 16 14 12 13 7 5 8 10 2 10 10 10 11 8 8 10 11 11 14 13 6 9 4 7 10 8 5 7 8 9 8 8 5 7 5 4 9 8 7 8 9 7 4 8 11 4 5 5 6 8 8 3 8 7 5 8 8 11 11 6 4 8 8 10 8 7
22 22 21 21 21 21 21 21 21 21 20 20 19 18 17 17 17 17 16 17 16 17 16 13 10 11 11 8 9 10 5 2 3 6 10 4 7 8 7 9 5 7 8 7 10 1 8 5 7 6 9 10 5 7 4 7 2 2 8 9 9 8 10 6 15 6 7 5 6 3 8 8 2 4 3 5 1 5 6 8 6 7 4 7 8 6 5 6
22 22 22 21 21 21 22 22 21 22 21 21 20 20 19 18 16 17 16 16 17 16 15 12 8 9 9 10 10 5 1 9 1 3 6 4 4 8 9 6 2 8 7 7 8 3 5 8 8 5 7 6 7 8 7 8 4 7 8 7 9 9 10 6 5 7 8 7 9 7 8 6 2 3 3 3 6 7 9 7 4 7 11 9 8 7 7 7
22 22 22 22 22 22 22 22 22 22 22 22 21 20 19 18 17 15 16 15 16 16 14 8 6 5 9 10 10 4 2 3 3 6 4 7 7 8 3 5 7 7 6 8 7 4 2 6 6 9 8 8 8 8 7 11 3 7 10 10 8 8 9 11 7 2 5 4 3 3 6 7 10 1 9 1 12 1 6 3 8 8 2 4 7 6 7 8
22 22 22 21 22 23 22 23 22 22 23 22 22 20 19 18 18 16 14 15 11 12 8 5 6 4 8 10 3 5 4 2 4 3 4 5 6 4 2 5 5 6 6 6 7 7 7 5 7 10 10 9 9 7 9 10 11 11 9 9 9 7 7 6 6 7 4 2 4 3 6 2 5 9 1 5 5 3 3 3 1 2 7 4 2 6 7 7
22 23 23 23 23 23 23 23 23 23 23 23 21 21 20 19 17 16 14 14 15 14 9 4 4 6 6 9 4 3 4 2 2 3 9 3 4 8 9 6 7 6 6 6 6 7 6 6 8 10 8 9 8 9 11 8 8 8 8 6 6 5 4 4 4 6 6 7 5 4 6 3 3 2 2 3 4 7 3 3 1 3 4 2 2 2 6 9
22 23 23 23 23 23 24 24 23 24 24 23 22 20 20 20 18 16 14 13 12 9 8 5 6 4 5 6 4 3 3 6 9 2 2 8 8 7 10 10 9 10 5 6 7 7 5 6 8 8 8 11 12 12 10 9 5 6 7 5 8 9 1 6 3 7 8 6 7 4 4 1 3 0 4 5 5 1 1 2 2 4 4 5 3 4 6 8
22 22 23 23 23 24 24 24 24 24 23 23 20 21 22 19 16 14 13 11 13 11 7 7 7 9 9 7 6 6 5 8 2 4 4 2 5 8 11 7 7 8 3 9 7 5 7 8 8 8 9 8 9 9 10 3 0 3 5 6 6 5 4 6 7 5 6 8 4 6 3 4 5 3 3 6 7 3 2 4 4 5 5 5 5 5 6 7
21 22 23 24 24 24 25 25 25 25 22 21 22 21 18 17 13 11 11 9 7 6 5 6 8 7 8 6 3 9 2 3 5 5 5 5 4 7 8 6 8 10 12 8 8 6 8 9 6 10 9 8 8 6 7 5 1 6 4 7 8 8 7 5 9 13 3 3 6 6 2 6 5 5 1 2 3 2 2 1 2 4 3 4 3 5 5 7
21 22 21 22 23 24 24 26 25 25 22 22 19 20 16 15 11 13 10 5 6 7 8 9 9 8 9 13 5 2 5 4 2 6 3 7 2 5 8 7 6 4 7 10 13 10 5 7 7 7 4 6 8 5 6 6 7 7 6 8 7 4 8 4 1 2 8 6 6 3 5 5 7 4 4 3 4 1 4 1 1 2 3 4 5 5 6 7
21 21 21 21 21 22 24 25 25 24 22 22 23 14 11 12 8 8 7 5 4 5 5 7 6 5 9 5 1 3 3 7 6 7 7 9 3 2 4 4 3 6 10 8 3 7 5 7 7 7 6 2 6 7 7 11 13 12 12 11 11 10 2 4 10 16 9 0 4 6 4 7 4 2 2 3 4 4 3 3 3 1 2 1 3 5 5 6
21 20 21 22 21 22 23 25 25 24 19 16 11 4 5 3 4 3 8 9 10 10 11 1 7 7 4 4 6 6 2 6 9 7 5 4 6 9 10 4 10 11 10 4 3 10 5 6 7 8 5 2 6 8 11 11 12 13 12 11 11 9 6 6 4 5 4 6 6 2 4 8 8 5 3 2 5 3 2 1 3 4 0 3 5 5 6 6
20 21 21 22 23 22 22 23 24 23 17 10 10 7 6 9 9 3 6 9 12 4 6 5 4 8 7 6 6 11 2 9 6 3 3 6 11 8 7 9 13 6 5 7 7 5 7 8 4 7 8 6 8 9 11 12 11 12 11 10 8 7 4 4 9 2 4 2 2 5 3 4 6 6 5 4 3 6 1 2 3 1 1 1 1 3 5 7
21 21 22 23 23 24 23 23 23 23 21 8 6 7 6 7 6 5 6 5 5 6 6 4 5 9 5 4 2 7 8 8 7 2 8 8 6 8 6 6 5 10 11 7 4 2 4 7 4 4 7 9 9 12 11 10 10 12 9 9 9 6 11 10 7 4 3 4 4 7 6 8 8 7 6 5 3 4 2 1 2 4 4 2 4 4 5 7
21 23 23 24 24 24 23 24 23 22 9 5 8 4 8 7 6 5 5 8 12 7 6 6 10 5 7 4 1 3 10 9 5 7 7 5 7 8 8 6 9 9 8 7 7 4 8 1 2 6 7 10 9 10 10 11 10 9 8 6 7 3 9 3 8 5 7 6 6 5 8 7 7 6 6 5 6 4 4 2 3 2 2 4 3 6 5 7
21 22 24 24 25 24 24 25 25 12 7 10 8 7 6 5 6 7 7 6 8 9 9 4 4 3 7 9 6 7 7 6 6 7 7 5 7 10 9 8 9 6 6 3 8 6 7 9 7 7 9 8 11 11 9 7 7 8 12 9 4 7 6 6 4 5 5 8 7 7 4 5 8 8 6 4 4 5 5 2 4 3 3 0 2 4 6 7
21 21 24 25 25 26 26 25 8 7 6 10 1 7 7 6 5 6 7 7 8 6 7 3 5 3 4 2 6 8 4 7 8 4 4 5 9 7 8 7 6 8 8 13 9 8 7 4 7 9 12 8 10 9 7 8 7 6 9 8 12 11 10 11 11 9 7 4 6 8 6 2 4 9 7 7 6 5 8 3 4 2 2 2 2 5 5 6
20 21 22 23 25 26 29 6 3 11 12 6 8 8 7 6 7 5 5 4 6 4 5 7 1 2 4 3 1 7 9 3 5 4 3 7 5 7 7 9 5 8 10 9 8 5 7 7 4 8 8 7 7 9 7 7 7 8 6 6 10 9 12 13 13 9 8 6 6 3 1 2 7 6 9 6 7 6 4 3 3 3 1 2 3 4 6 7
20 21 20 21 21 22 11 1 10 15 9 6 7 7 6 5 5 5 4 4 5 4 3 9 5 2 4 2 6 5 8 7 4 2 0 7 9 5 9 8 7 5 3 3 4 3 1 8 5 14 12 12 8 6 7 9 8 7 6 7 9 12 12 12 15 8 8 11 3 4 8 3 6 4 8 9 7 7 4 2 2 3 4 5 4 7 7 6
20 20 20 20 21 10 7 10 12 9 10 8 8 7 5 5 5 4 4 2 4 5 2 4 6 3 5 1 2 5 5 6 7 8 4 8 5 7 7 9 9 10 6 3 8 6 5 5 6 8 9 7 5 9 8 9 7 8 12 12 12 13 14 14 11 8 2 5 4 8 8 3 1 4 4 7 10 9 6 5 5 1 1 0 3 7 8 7
19 19 19 19 23 24 9 7 8 9 9 9 8 8 6 6 7 4 2 5 3 2 2 2 2 5 5 4 8 7 8 5 6 6 1 10 5 6 7 4 6 10 10 6 8 1 7 5 9 5 4 5 10 11 9 11 9 7 9 12 12 13 13 12 8 9 9 2 2 7 1 3 5 2 6 1 6 8 6 4 3 2 3 4 6 6 6 6
21 18 17 18 18 6 5 6 8 9 10 7 8 9 7 5 5 3 2 4 1 3 2 3 6 4 6 7 1 5 8 3 4 4 4 7 11 10 9 3 6 8 9 10 10 7 4 10 6 2 5 6 8 10 10 13 14 12 9 11 9 9 6 7 7 3 4 3 7 7 8 12 1 1 3 2 3 5 8 4 4 4 2 4 5 4 7 7
23 20 15 11 6 6 9 7 3 5 7 8 9 9 6 4 3 3 5 2 3 5 4 2 7 2 3 6 5 3 4 3 1 4 6 7 1 6 11 3 2 7 8 6 6 5 3 8 3 3 4 6 7 10 12 11 5 7 7 7 8 9 4 5 3 4 1 4 8 5 12 6 3 4 4 8 9 10 6 5 4 2 0 3 2 7 7 9
25 23 18 9 9 7 6 2 10 9 8 9 9 7 4 3 5 3 3 5 7 4 4 5 3 5 7 1 9 8 6 7 8 9 1 5 1 4 7 6 7 7 3 3 5 8 5 2 7 6 7 6 9 10 8 12 9 7 8 2 2 5 3 3 0 1 2 3 9 13 15 8 6 5 12 13 8 7 7 6 8 4 7 10 8 11 13 4
26 26 23 14 8 7 10 12 9 7 8 9 7 5 5 2 4 3 5 3 3 4 5 5 4 5 4 7 3 6 8 5 7 5 5 3 6 6 6 6 6 5 6 8 9 6 1 7 7 7 6 3 9 10 9 7 9 10 7 7 6 4 4 3 2 1 1 4 7 7 16 5 5 5 7 10 9 7 3 4 9 6 6 8 10 9 10 11
28 28 10 5 5 8 7 7 6 8 8 6 6 4 6 4 3 12 5 6 5 3 5 3 7 3 8 5 7 8 7 9 5 7 6 3 3 2 3 5 6 8 5 8 6 4 5 2 7 10 7 11 9 9 8 8 9 8 6 7 6 2 3 4 3 4 3 3 7 16 8 4 6 6 11 9 6 7 5 6 8 7 7 9 9 13 1 9
30 24 9 7 7 10 10 8 6 5 6 6 5 4 3 4 4 8 4 4 5 5 7 3 6 8 2 1 5 2 5 4 7 1 3 6 3 3 5 3 9 6 7 7 6 6 6 4 3 3 4 8 9 8 8 9 7 2 8 6 4 1 4 4 2 4 4 4 4 2 3 5 6 9 5 6 7 6 8 6 7 9 7 5 8 10 11 12
19 8 3 5 6 4 5 5 4 4 5 5 5 3 4 6 4 4 5 6 5 6 8 9 5 7 4 1 6 3 4 6 8 6 2 2 4 1 2 4 5 8 7 5 6 4 7 2 8 9 5 10 8 8 7 6 4 7 9 5 4 7 6 5 4 4 5 5 0 2 5 5 7 6 5 7 6 6 4 8 12 6 17 13 10 11 11 10
10 11 7 8 6 3 3 3 3 4 5 6 4 4 3 6 8 7 5 6 7 5 7 8 4 5 4 6 3 4 5 5 5 3 3 3 1 2 3 7 6 6 8 5 6 3 6 9 8 6 7 8 7 5 3 3 4 6 5 7 11 7 7 3 3 3 3 4 0 5 4 4 3 3 2 7 8 6 11 8 10 5 12 14 14 10 12 10
10 9 10 12 4 2 0 2 2 5 6 6 4 7 8 10 2 4 7 7 4 0 6 6 2 5 2 4 5 7 9 6 7 4 6 4 2 2 7 4 5 5 3 4 4 2 5 6 2 4 2 7 7 1 4 5 2 4 5 7 7 3 3 4 3 3 4 4 3 3 15 4 6 3 3 6 8 8 7 9 16 15 10 7 10 12 11 13
9 6 6 4 2 1 1 1 4 6 6 6 7 3 7 8 4 5 5 5 3 4 5 4 4 4 4 4 7 5 6 6 8 5 5 3 4 1 7 5 5 7 7 4 6 5 5 4 3 4 1 4 2 5 5 8 2 1 3 2 6 4 3 4 3 4 4 5 2 2 5 4 5 6 2 8 9 8 10 12 9 8 11 12 12 11 11 10
7 5 3 4 2 1 2 2 5 6 5 5 4 4 7 11 5 5 6 7 6 5 5 8 7 6 7 9 5 5 4 7 5 5 6 2 3 6 6 7 7 5 6 5 6 4 3 2 5 7 5 3 2 5 6 7 6 6 6 7 6 5 4 5 2 2 3 4 3 5 2 3 5 5 7 7 8 10 10 9 9 7 9 10 11 11 9 10
7 6 1 1 1 2 2 5 6 7 5 7 7 7 8 5 9 1 5 2 4 7 3 5 5 3 6 8 2 4 4 4 5 4 3 2 4 1 8 7 0 5 9 3 5 3 2 4 5 8 6 3 7 7 8 7 5 5 4 5 6 7 7 6 1 3 6 3 4 2 3 6 4 3 7 10 7 7 8 9 10 12 13 13 10 10 10 9
6 6 1 4 4 2 4 6 7 5 7 5 2 1 2 5 7 13 2 7 5 4 4 4 6 3 4 6 8 6 6 8 7 6 4 6 2 6 5 4 4 2 5 1 5 6 3 4 6 4 5 7 8 9 7 2 2 2 5 6 8 7 4 4 4 5 6 6 3 3 4 4 3 6 7 8 8 12 14 13 12 12 12 11 11 13 9 9
6 5 5 4 5 3 4 7 8 5 6 4 2 4 3 3 5 7 8 2 4 3 2 4 3 3 4 4 5 7 7 4 7 5 7 5 7 5 5 2 6 1 8 3 3 7 4 2 5 6 4 9 8 6 6 1 4 1 4 8 6 5 4 3 4 4 5 6 3 3 3 6 7 7 7 7 9 10 7 9 11 10 10 10 11 13 13 11
8 9 2 5 4 3 5 4 4 5 4 9 11 9 1 3 6 9 7 6 4 4 5 6 7 7 3 4 6 6 5 2 1 5 2 5 4 6 12 6 3 1 6 2 4 3 0 2 6 6 3 4 3 2 2 3 6 5 3 6 6 4 5 6 7 4 3 4 4 4 5 4 5 8 9 9 9 10 11 12 11 11 9 12 12 11 11 11
8 6 7 4 5 4 6 6 6 3 6 6 5 7 6 3 4 3 6 7 5 4 5 3 7 3 4 5 5 5 4 4 5 6 7 2 6 2 4 2 8 4 10 6 5 4 5 4 4 4 6 6 6 5 6 6 6 4 4 5 5 5 4 4 3 2 4 5 7 4 6 8 12 11 12 11 12 12 12 11 11 10 11 12 12 10 10 11
3 4 2 4 3 5 8 8 7 6 7 5 4 6 7 6 4 4 3 8 6 6 3 9 5 4 2 3 4 4 5 4 5 4 7 5 6 4 7 1 4 2 8 8 5 4 4 4 4 3 5 5 4 5 5 6 4 4 2 4 3 5 4 1 3 4 3 5 6 3 5 10 15 15 12 12 10 12 12 12 12 11 12 11 12 12 11 10
6 5 4 4 3 6 6 3 5 5 1 3 3 4 5 3 2 5 3 4 2 5 7 7 5 4 2 4 3 6 5 7 4 5 6 8 4 5 5 5 2 7 7 1 1 2 3 6 3 5 7 8 9 6 4 6 4 1 5 1 2 3 1 1 3 2 1 5 4 6 12 7 9 11 11 11 11 11 11 11 12 11 11 11 10 11 13 14
4 3 6 5 3 4 6 3 3 4 9 5 6 5 6 7 7 4 5 6 4 5 4 4 4 6 6 4 3 2 5 7 8 6 6 7 6 2 3 7 1 7 3 3 2 3 5 4 6 5 6 9 9 10 4 6 3 7 4 6 6 4 5 3 3 3 4 3 8 13 14 10 12 11 10 10 11 10 11 11 11 12 12 11 11 13 14 13
5 5 4 10 6 8 8 10 10 9 10 8 6 6 8 8 8 6 3 3 2 4 2 4 6 7 7 2 3 3 6 4 3 6 6 8 5 4 4 4 1 7 2 3 3 2 3 5 7 6 10 9 9 7 5 7 6 7 6 5 5 8 7 6 5 5 3 5 7 9 12 14 13 11 10 11 9 8 8 8 10 12 11 11 11 12 14 16
7 7 7 8 8 9 10 9 7 7 8 6 4 5 6 6 7 6 6 6 4 4 9 8 6 5 6 3 2 4 5 3 4 4 3 6 6 5 5 3 4 6 3 3 3 1 2 0 3 6 8 10 5 2 5 5 9 2 3 8 6 5 3 3 1 3 2 6 5 7 11 11 12 12 9 9 7 7 9 11 12 11 10 11 11 14 14 14
6 5 4 7 9 7 9 7 6 6 6 5 6 6 7 7 4 5 6 5 8 1 6 7 6 8 7 8 6 5 5 6 4 5 8 5 6 2 3 1 2 4 6 4 4 2 2 4 7 5 6 8 4 6 3 5 2 8 2 3 7 7 3 3 3 5 5 6 3 2 4 6 7 9 10 9 10 10 11 11 11 10 11 11 10 13 14 15
7 7 6 5 7 6 10 9 10 9 6 6 5 3 7 6 5 3 4 5 5 5 4 4 5 4 8 7 4 4 5 7 6 7 7 7 6 7 8 10 9 6 4 5 7 6 5 5 4 4 6 5 8 9 9 9 3 2 2 5 9 3 1 1 4 6 7 4 2 5 5 5 9 10 10 10 10 11 10 10 10 10 10 10 11 13 13 13
Wind_Direction
360 1 0 360 357 354 353 350 349 347 345 340 336 332 330 326 325 322 321 319 317 318 317 316 316 314 310 319 325 321 322 308 294 267 164 54 36 291 307 296 289 284 296 293 278 273 271 230 214 93 261 242 198 266 93 252 288 283 235 254 256 257 333 351 37 5 19 286 353 3 25 349 270 299 294 331 227 222 246 248 254 233 261 247 62 40 27 17
358 357 357 356 356 353 350 349 348 346 344 340 336 332 325 325 323 322 319 318 317 315 316 316 315 316 314 317 321 320 316 298 283 206 69 107 109 213 278 280 278 277 306 286 270 247 242 193 237 228 246 245 98 236 354 230 199 245 257 250 263 3 44 354 23 19 5 348 343 329 323 298 359 295 300 271 322 317 281 238 221 234 226 83 57 53 50 9
357 355 355 355 354 353 351 348 347 345 341 340 336 330 325 324 322 321 318 317 315 315 314 315 316 317 316 317 321 314 306 288 273 133 116 132 162 232 268 268 277 277 260 284 299 323 1 359 325 286 259 267 145 243 207 151 233 227 265 260 315 1 327 49 28 332 14 351 321 327 325 339 302 267 265 282 274 271 278 303 353 262 202 92 121 90 82 49
355 354 352 352 352 352 350 348 345 343 341 338 335 330 326 323 322 321 318 315 314 312 312 314 317 319 317 316 324 319 294 283 267 111 114 170 199 214 262 267 270 277 280 274 269 333 38 282 277 274 286 259 104 270 264 113 262 10 249 282 354 5 328 46 321 28 5 2 330 308 307 289 311 350 74 302 281 258 306 24 34 358 351 359 357 17 23 45
353 353 351 349 350 349 348 346 344 341 339 337 333 328 326 323 321 320 318 315 313 312 310 313 320 322 321 313 309 304 309 280 85 97 107 161 193 219 251 263 268 277 283 300 298 265 261 302 300 292 248 251 214 229 268 337 108 284 272 338 328 335 292 57 22 323 25 351 317 264 257 278 8 270 256 242 251 274 45 12 18 333 346 341 322 5 40 40
351 350 350 348 347 347 346 344 342 340 337 335 331 327 323 322 319 318 317 314 312 311 310 314 322 326 321 309 303 287 279 359 118 115 157 173 181 227 246 259 267 273 280 281 282 294 269 227 238 248 252 275 21 297 93 269 348 275 242 330 14 294 314 359 281 90 255 306 292 300 294 356 284 297 267 83 262 286 47 13 17 351 306 333 3 61 45 33
350 349 348 348 346 345 344 343 341 338 336 333 330 327 324 321 319 316 314 313 310 309 310 313 327 328 326 300 266 233 248 297 132 128 141 181 199 209 245 261 271 269 270 266 259 303 53 313 272 340 316 280 195 276 44 340 301 264 297 147 270 46 292 311 297 288 293 260 240 270 317 290 291 272 57 323 328 276 15 340 344 291 320 338 74 33 58 40
348 348 347 346 345 344 344 341 340 337 334 333 329 325 322 318 315 313 311 310 308 306 308 314 331 328 344 333 324 241 246 149 125 143 157 161 217 222 233 256 266 272 286 18 320 324 334 285 311 1 260 296 73 277 32 295 222 266 275 73 324 335 269 203 309 315 269 256 257 236 251 257 260 271 90 260 260 347 346 340 334 294 19 266 210 101 82 61
346 346 346 344 343 343 342 340 338 337 334 330 328 324 321 318 314 311 309 307 304 303 303 313 332 325 303 279 285 303 10 82 112 145 154 182 217 234 226 246 235 261 306 257 44 297 300 34 328 10 325 303 46 278 222 264 219 291 303 315 295 258 278 15 350 251 237 228 271 307 252 245 246 39 270 270 354 26 335 278 245 24 278 343 48 17 47 75
345 344 343 343 342 342 341 339 336 335 333 330 326 323 320 318 314 311 306 302 300 298 298 310 333 317 302 273 278 272 98 150 153 147 188 200 223 254 253 282 1 287 301 34 265 284 346 333 347 316 313 280 233 294 3 263 337 94 290 309 306 302 328 267 215 273 342 317 314 248 285 278 234 114 226 108 344 330 270 247 30 218 189 274 50 47 42 60
344 343 341 341 341 340 339 336 335 333 331 329 326 322 319 315 312 306 303 298 294 292 294 309 333 310 309 292 291 328 346 261 236 158 155 268 245 262 264 282 73 287 298 261 281 75 322 285 349 309 288 357 326 285 197 249 355 277 325 308 274 250 203 273 353 275 220 244 203 221 269 320 260 286 353 263 50 325 291 29 276 21 344 4 45 43 24 47
342 341 341 339 339 338 337 334 333 332 329 327 324 321 316 313 309 304 302 298 289 285 288 305 324 292 282 295 275 34 242 317 115 277 228 160 234 232 267 300 271 278 299 298 310 16 289 307 303 291 300 344 269 292 319 360 161 273 269 265 261 239 248 204 235 346 43 265 195 252 297 257 277 146 79 46 293 69 291 49 11 281 106 161 70 70 49 43
341 340 339 338 337 337 334 333 331 329 327 325 321 320 315 310 307 304 302 300 284 283 292 7 301 281 299 293 92 66 312 179 206 230 271 224 257 219 240 233 243 272 292 295 298 327 324 285 276 280 280 297 312 289 3 276 268 268 256 244 251 274 234 186 184 246 260 27 344 39 263 299 190 84 24 13 335 221 324 33 49 118 234 115 110 71 72 47
340 339 338 338 336 334 333 331 329 327 325 322 320 317 313 307 304 301 297 282 287 286 293 307 291 283 299 276 88 43 248 295 324 167 223 205 259 216 222 195 224 256 246 294 296 288 296 287 285 276 286 268 286 331 282 281 275 252 272 259 277 272 342 285 189 224 232 138 222 197 262 352 10 25 9 112 241 338 93 332 315 72 24 6 82 117 86 73
339 338 337 336 335 332 330 329 327 325 323 321 318 314 308 303 301 295 289 287 272 290 287 257 228 268 230 255 131 151 334 291 244 247 8 293 286 288 229 185 242 205 245 299 303 284 263 283 282 274 267 259 229 246 270 271 328 9 0 334 339 308 197 293 226 254 262 147 183 197 310 219 204 129 136 227 307 271 315 187 239 345 14 1 356 55 72 66
338 337 336 335 333 331 328 328 326 323 321 319 317 310 302 297 293 290 286 283 299 308 264 264 225 226 284 278 120 132 209 231 95 3 324 317 281 287 343 312 325 313 236 233 219 235 250 267 266 298 293 295 259 255 275 335 257 47 74 307 277 327 331 314 260 321 241 264 251 264 209 196 193 105 322 343 258 230 56 15 343 327 339 352 354 28 36 50
336 336 335 334 333 330 328 326 325 323 320 318 315 301 292 289 292 291 287 288 269 219 244 260 292 219 258 73 184 214 255 102 9 255 172 213 351 284 322 315 266 260 206 228 250 247 250 251 236 235 223 278 297 354 359 302 336 240 189 210 213 199 152 257 271 243 251 211 288 170 256 88 116 229 27 212 307 283 113 53 338 333 343 327 314 358 58 54
335 334 333 332 331 329 327 325 323 322 321 316 312 291 286 285 299 294 260 209 238 237 237 253 257 298 229 266 233 326 18 258 67 343 360 336 334 317 243 258 272 259 319 265 210 258 227 247 238 268 310 322 341 321 271 326 326 322 299 291 291 266 171 113 246 310 246 226 230 136 268 163 157 133 119 24 315 301 117 83 36 17 359 342 11 23 4 42
334 333 331 331 329 328 326 324 320 320 321 317 292 277 262 252 264 245 263 195 205 198 221 193 217 243 20 63 112 207 86 25 270 255 198 231 217 241 300 205 253 303 222 235 181 210 267 260 243 263 272 327 254 290 312 323 324 314 316 300 300 304 7 139 237 214 250 162 263 208 231 140 111 107 190 138 1 11 7 78 254 62 85 106 48 36 18 32
333 331 329 328 327 326 325 322 319 316 327 329 331 302 234 216 183 206 213 234 238 261 323 63 224 283 231 51 357 350 303 273 234 208 292 181 250 254 245 266 224 219 267 301 322 230 127 301 307 326 321 198 300 317 325 314 309 302 297 303 299 319 5 5 39 267 142 255 257 311 188 155 164 165 180 115 187 105 223 215 262 130 243 338 15 36 48 37
329 330 328 326 326 324 322 321 316 313 322 305 290 290 343 12 335 46 341 251 230 298 302 4 322 321 23 329 3 328 317 201 305 156 1 8 277 283 246 234 252 273 232 273 237 276 288 264 309 292 303 309 336 332 302 307 303 304 298 296 293 279 3 334 294 34 293 263 207 203 279 129 166 169 197 148 187 136 127 164 265 317 101 319 46 353 48 48
329 327 327 326 323 325 321 319 314 313 312 265 264 277 6 20 4 327 320 304 215 207 236 247 344 228 101 331 326 326 280 297 164 357 124 292 333 294 30 317 310 277 324 293 297 321 308 286 336 319 345 344 312 296 294 293 309 299 293 294 294 360 321 316 280 301 263 210 267 182 216 169 164 177 163 170 234 99 240 51 245 301 305 348 346 11 357 45
328 326 326 326 324 323 324 315 317 310 307 260 253 282 17 337 325 348 277 283 280 226 239 235 235 262 154 156 206 297 285 270 272 128 53 344 298 298 7 284 279 352 304 277 275 286 280 277 21 316 333 292 295 292 314 312 301 309 303 39 293 224 241 211 238 225 263 249 271 168 229 150 158 168 165 191 185 147 161 119 42 103 45 315 333 17 358 43
327 326 325 326 325 323 322 318 307 293 236 252 314 27 347 340 341 328 316 274 299 175 249 170 320 289 16 324 76 291 295 357 300 89 96 343 318 348 283 322 332 300 265 308 303 345 310 346 19 340 303 309 306 312 305 307 311 307 324 316 289 280 283 303 306 243 255 233 246 259 194 207 171 171 184 182 131 189 104 147 147 33 115 208 92 52 2 41
325 326 326 326 327 322 320 317 301 246 261 246 244 24 349 348 342 359 305 291 237 240 158 151 262 172 74 253 221 269 333 280 239 308 23 353 338 324 311 333 306 253 280 1 354 275 257 69 326 303 294 320 311 289 312 325 308 327 309 322 317 329 311 295 296 276 240 284 332 3 240 179 166 187 168 147 194 138 188 168 87 100 3 325 8 57 35 26
324 326 326 324 326 328 311 299 339 346 321 335 6 17 342 340 23 325 315 262 273 165 149 197 242 132 335 201 41 296 293 298 60 53 12 7 324 278 307 277 213 315 358 338 331 306 315 360 314 270 276 272 298 309 6 353 316 309 294 286 301 313 299 289 287 355 330 287 213 157 197 233 303 247 169 173 173 176 131 164 168 159 89 328 352 329 48 357
322 323 324 323 325 336 331 44 339 309 296 56 353 10 333 348 12 329 282 232 259 104 268 101 232 86 242 5 317 310 256 70 257 156 328 115 322 25 304 314 305 131 165 36 265 267 235 263 324 348 353 343 333 319 19 339 316 293 330 303 278 274 279 300 296 247 200 234 137 209 213 206 196 287 196 174 169 160 147 132 261 124 250 58 341 343 3 356
321 321 322 321 318 326 282 304 309 315 12 353 5 327 341 17 311 275 273 291 66 187 273 72 35 141 243 200 280 279 342 329 273 105 248 326 263 242 254 287 325 319 336 25 294 79 339 33 10 350 335 302 304 357 342 286 284 298 301 309 305 304 303 293 279 285 345 22 334 294 270 229 169 246 141 227 166 153 188 140 235 34 352 22 17 1 337 351
320 320 320 320 318 297 260 236 302 292 336 348 341 333 349 353 291 297 290 273 135 207 88 144 158 227 283 242 233 200 279 87 309 16 12 207 184 296 265 38 331 308 309 298 294 298 129 24 34 350 305 335 347 335 326 303 289 282 310 309 293 298 300 299 312 341 326 64 247 208 204 282 125 201 163 283 152 183 156 158 286 308 10 13 30 340 343 344
319 320 318 325 318 264 187 215 246 269 297 332 341 322 314 282 264 243 243 248 23 133 313 54 208 8 316 299 10 106 284 60 337 243 222 321 161 243 220 200 278 314 282 224 216 267 315 61 52 260 36 341 330 316 298 299 310 334 324 299 337 325 306 296 283 340 32 280 280 249 191 238 136 264 255 164 198 165 173 170 105 247 298 27 21 291 0 347
318 317 317 321 297 333 332 262 242 294 324 348 337 313 282 258 254 283 251 69 227 82 205 72 9 285 345 336 315 106 310 330 203 335 310 183 335 358 23 304 158 267 247 313 267 250 246 104 211 92 20 345 325 312 292 271 283 2 314 323 341 303 306 276 258 74 319 272 254 276 239 249 144 213 211 225 197 167 158 147 158 31 339 247 284 19 3 9
317 315 310 296 261 308 255 327 356 329 340 338 315 297 266 276 202 224 271 146 250 63 325 7 143 43 302 43 271 37 342 309 58 299 28 317 325 43 44 315 352 333 337 165 319 341 210 185 111 129 83 12 321 304 332 357 340 358 323 338 327 327 313 360 41 236 169 287 299 282 288 51 61 141 190 186 116 82 79 127 181 188 29 13 3 22 310 71
318 312 311 278 236 228 243 265 301 315 319 312 310 273 265 271 274 224 279 14 58 319 54 268 331 311 357 251 13 358 315 275 31 2 336 53 300 70 52 26 24 292 317 327 313 306 33 144 40 96 165 36 341 339 356 332 0 324 319 329 313 327 319 346 353 5 310 222 263 283 293 68 115 211 124 107 93 101 186 152 42 27 9 1 13 357 324 6
316 312 313 279 232 230 259 285 292 318 321 305 285 281 262 289 289 314 355 40 62 44 314 19 315 232 225 275 19 12 313 104 176 32 307 167 202 298 154 105 39 334 338 332 304 12 309 281 52 340 346 348 16 3 0 323 316 319 325 319 327 6 323 314 17 354 357 263 297 293 255 159 168 70 99 100 152 184 101 39 18 18 14 22 352 286 86 317
312 301 261 256 241 247 244 253 270 296 309 293 275 272 279 284 319 294 34 13 39 346 326 15 285 316 79 155 117 61 343 322 37 43 235 305 42 341 11 340 61 2 322 309 45 305 314 317 122 139 328 16 5 16 340 354 305 19 319 300 41 309 252 295 2 266 288 292 251 228 111 224 105 153 143 169 103 77 38 29 34 360 314 291 284 29 6 344
304 326 272 261 241 190 206 214 228 257 290 294 278 277 273 302 272 357 25 335 9 352 338 290 259 289 17 218 107 201 79 316 359 350 298 234 78 103 99 355 24 22 336 334 2 316 332 342 55 343 2 55 32 3 25 351 337 342 314 356 348 245 261 295 262 274 256 249 279 125 65 57 127 36 71 90 90 20 326 14 2 6 332 10 18 4 350 350
330 317 288 264 229 146 178 231 239 248 268 285 292 272 272 268 352 345 58 356 354 327 313 325 87 332 6 332 53 344 136 262 224 249 333 226 142 2 30 94 352 358 5 331 318 19 313 314 322 328 358 104 66 48 43 4 330 312 336 359 318 291 341 324 329 315 283 298 181 152 130 148 218 119 359 37 7 355 358 344 280 347 45 350 354 3 353 339
314 307 292 283 18 62 255 249 261 257 267 277 265 264 278 292 44 24 19 349 324 224 307 323 63 256 13 315 25 347 39 321 3 331 327 41 25 333 305 82 59 16 325 266 304 343 316 303 51 326 318 36 41 274 207 160 133 359 334 324 322 15 347 333 295 335 343 328 352 131 148 130 113 118 63 35 9 355 350 346 18 8 352 356 337 351 349 345
276 280 294 115 54 8 98 68 246 272 268 257 269 293 307 275 72 32 42 328 231 338 305 46 319 16 358 324 336 323 43 316 347 338 318 62 298 114 23 11 143 156 231 284 277 5 336 314 317 223 7 80 205 327 24 353 40 32 267 334 14 298 338 313 21 309 300 298 309 348 23 71 58 81 9 35 10 329 352 331 16 360 346 351 3 354 346 338
291 284 272 116 151 330 152 225 259 259 254 261 281 153 245 289 43 60 68 7 355 332 55 331 19 319 350 341 12 348 21 318 339 339 308 76 300 87 58 75 24 5 308 6 315 19 318 359 293 310 354 160 16 34 30 8 357 348 356 16 356 345 343 302 302 338 345 325 308 325 322 111 62 340 15 19 2 344 357 3 350 4 7 6 356 332 326 326
299 271 254 210 129 233 234 251 257 246 233 269 267 282 262 346 328 39 113 85 302 211 321 3 296 335 357 322 19 6 312 289 275 275 312 4 4 139 62 56 43 325 316 39 265 69 284 292 297 315 317 328 77 71 53 28 15 3 348 30 341 356 2 336 25 85 358 306 338 311 332 96 54 28 343 19 345 331 329 9 346 0 5 357 339 316 327 335
296 286 117 211 151 215 271 270 246 244 284 271 354 288 13 348 296 284 257 143 293 27 152 268 75 27 328 340 348 337 344 320 316 309 70 323 27 35 92 27 39 355 279 319 332 85 27 303 275 286 309 58 98 111 91 38 59 33 40 37 3 28 3 350 325 4 336 310 325 266 268 87 19 34 3 5 335 347 10 5 354 351 355 337 329 331 344 347
258 299 100 166 186 230 266 267 277 271 250 279 22 281 63 256 271 340 329 299 344 179 349 343 358 328 60 337 333 326 358 309 301 288 345 326 73 81 79 22 49 207 266 314 323 66 5 271 297 299 250 132 119 113 151 207 315 187 37 49 37 17 10 348 319 327 298 310 302 358 282 118 77 17 1 347 26 12 353 3 356 354 332 327 339 331 339 347
318 308 244 156 181 187 273 274 310 325 304 23 329 316 319 327 329 311 306 340 311 339 346 331 61 104 343 355 4 319 25 345 29 286 3 360 318 38 110 54 75 237 295 94 307 74 257 347 322 301 272 145 117 173 243 262 276 23 45 11 34 32 23 318 292 277 284 43 343 322 300 130 37 4 350 355 4 1 4 3 9 341 336 330 339 333 339 336
297 264 254 157 190 205 251 285 311 276 299 297 303 300 325 271 308 318 316 310 315 322 310 289 304 348 357 358 333 321 285 231 300 301 270 291 313 307 69 79 139 254 64 48 337 319 293 306 320 322 343 332 341 340 351 356 350 355 49 40 21 104 24 348 317 347 272 33 336 285 281 335 353 358 353 1 1 1 357 350 344 336 336 336 327 343 330 321
290 316 319 161 205 221 246 259 271 282 296 313 324 300 304 323 242 205 284 297 341 315 281 298 282 6 341 326 309 296 290 275 284 321 311 318 313 316 84 222 164 41 67 33 343 314 297 280 263 291 310 327 327 316 321 327 335 312 336 64 19 73 72 31 292 270 336 346 309 49 4 344 344 344 348 348 350 345 345 339 334 340 336 336 334 326 329 341
310 285 343 334 268 221 267 238 301 310 1 86 282 334 312 260 310 1 29 308 17 294 307 300 300 312 357 267 349 322 310 307 189 235 281 293 279 283 141 325 346 127 113 49 244 299 280 290 262 255 268 294 311 291 281 311 305 91 102 135 78 97 81 67 292 337 189 294 255 74 353 349 322 330 342 335 336 342 340 331 331 333 333 329 322 314 333 340
266 349 350 30 302 310 314 65 20 266 296 312 299 290 283 303 299 270 220 252 319 304 299 291 296 188 253 347 348 319 302 305 339 314 309 269 273 323 305 135 242 112 167 271 268 258 311 290 321 296 284 279 292 306 293 275 285 160 150 148 145 131 119 156 241 265 317 288 291 337 335 324 322 325 327 318 339 339 334 333 327 327 328 320 322 334 335 347
310 330 326 357 315 308 301 330 328 310 298 287 301 292 281 289 288 291 296 295 245 286 351 292 291 304 317 80 314 308 306 310 316 326 308 326 299 299 254 289 271 136 122 272 234 341 303 279 320 306 309 304 282 265 288 287 311 139 143 170 149 148 191 192 237 267 294 264 287 291 303 298 297 304 310 320 329 341 334 334 330 328 326 316 332 348 346 338
338 352 334 330 308 294 292 285 295 303 292 260 244 276 289 281 293 310 350 343 318 300 342 274 292 298 295 287 241 272 288 286 233 255 271 296 299 277 296 240 227 216 233 222 274 102 265 216 290 321 301 286 276 227 258 292 294 101 171 166 152 153 145 210 264 282 265 286 266 267 272 281 285 278 293 313 328 349 329 331 326 320 318 320 339 344 342 334
338 311 329 305 306 303 311 289 260 277 289 287 270 316 327 312 295 348 295 224 256 233 232 275 319 321 310 316 307 287 334 313 310 284 284 261 260 241 266 279 255 281 210 210 183 198 206 285 289 289 291 292 141 212 167 278 235 139 122 127 138 132 157 198 201 200 191 221 197 227 263 264 291 316 313 324 339 340 331 326 322 321 315 315 336 336 336 334
327 341 303 278 280 300 293 292 288 282 260 300 353 131 205 244 294 311 307 263 250 237 263 273 270 323 305 298 320 356 322 286 305 326 297 274 256 260 216 235 241 252 269 260 161 218 220 270 291 318 305 297 313 311 322 323 116 122 177 218 185 183 211 113 241 194 199 172 227 254 269 319 305 304 321 338 341 330 328 327 321 336 359 345 336 340 333 341